Weather History for KLBX - February, 2013

Change the Weather History Date:

Wednesday, February 13, 2013

  Actual Average Record
Temperature  
Mean Temperature 52 °F -  
Max Temperature 60 °F 64 °F - (-1)
Min Temperature 39 °F 47 °F - (-1)
Degree Days  
Heating Degree Days 14    
Growing Degree Days 2 (Base 50)    
Moisture  
Dew Point 41 °F    
Average Humidity 70    
Maximum Humidity 93    
Minimum Humidity 44    
Precipitation  
Precipitation 0.02 in - - ()
Sea Level Pressure  
Sea Level Pressure 30.06 in    
Wind  
Wind Speed 8 mph (NNW)    
Max Wind Speed 16 mph    
Max Gust Speed 22 mph    
Visibility 10 miles    
Events Rain , Thunderstorm    
Averages and records for this station are not official NWS values.
T = Trace of Precipitation, MM = Missing Value Source: NWS Daily Summary

Daily Weather History Graph

Daily Weather History Graph

Search for Another Location

Airport or City:

Trip Planner

Search our weather history database for the weather conditions in past years. The results will help you decide how hot, cold, wet, or windy it might be!

Date:

Astronomy

Feb. 13, 2013 Rise Set
Actual Time 7:02 AM CST 6:10 PM CST
Civil Twilight 6:37 AM CST 6:34 PM CST
Nautical Twilight 6:09 AM CST 7:02 PM CST
Astronomical Twilight 5:42 AM CST 7:30 PM CST
Moon 8:53 AM CST (2/13) 9:49 PM CST (2/13)
Length of Visible Light 11h 56m
Length of Day
11h 08m
Waxing Crescent, 14% of the Moon is Illuminated
Feb 13
Waxing Crescent
Feb 17
First Quarter
Feb 25
Full
Mar 4
Last Quarter
Mar 11
New

Hourly Weather History & Observations

Time (CST) Temp. Windchill Dew Point Humidity Pressure Visibility Wind Dir Wind Speed Gust Speed Precip Events Conditions
12:53 AM 57.0 °F - 52.0 °F 83% 30.00 in 10.0 mi North 5.8 mph - N/A   Overcast
1:29 AM 57.2 °F - 51.8 °F 82% 30.02 in 10.0 mi North 6.9 mph - N/A   Overcast
1:53 AM 55.9 °F - 48.9 °F 77% 30.03 in 10.0 mi North 9.2 mph - N/A   Overcast
2:39 AM 55.4 °F - 44.6 °F 67% 30.03 in 10.0 mi NNW 12.7 mph 19.6 mph N/A   Mostly Cloudy
2:53 AM 54.0 °F - 44.1 °F 69% 30.05 in 10.0 mi NNW 6.9 mph 16.1 mph N/A   Scattered Clouds
3:53 AM 52.0 °F - 46.0 °F 80% 30.04 in 9.0 mi NNW 8.1 mph - 0.00 in Rain Light Rain
4:53 AM 48.9 °F - 43.0 °F 80% 30.06 in 10.0 mi NNW 8.1 mph - 0.01 in Rain Light Rain
5:53 AM 48.0 °F - 41.0 °F 77% 30.06 in 10.0 mi NNW 6.9 mph - 0.00 in Rain Light Rain
6:53 AM 46.9 °F - 42.1 °F 83% 30.09 in 10.0 mi NW 6.9 mph - 0.00 in Rain Light Rain
7:53 AM 46.9 °F - 41.0 °F 80% 30.07 in 10.0 mi North 9.2 mph - 0.01 in Rain Light Rain
8:20 AM 46.4 °F 41.9 °F 39.2 °F 76% 30.09 in 10.0 mi NNW 9.2 mph - 0.00 in Thunderstorm Overcast
8:35 AM 46.4 °F 42.4 °F 39.2 °F 76% 30.10 in 10.0 mi NNW 8.1 mph - 0.00 in Rain Light Rain
8:53 AM 46.9 °F - 39.9 °F 77% 30.09 in 10.0 mi North 10.4 mph - 0.00 in   Mostly Cloudy
9:53 AM 48.0 °F - 39.0 °F 71% 30.09 in 10.0 mi North 16.1 mph 21.9 mph 0.00 in   Partly Cloudy
10:53 AM 50.0 °F - 39.0 °F 66% 30.12 in 10.0 mi North 12.7 mph - 0.00 in   Mostly Cloudy
11:53 AM 52.0 °F - 37.9 °F 59% 30.12 in 10.0 mi NNW 10.4 mph - N/A   Mostly Cloudy
12:53 PM 54.0 °F - 39.0 °F 57% 30.10 in 10.0 mi North 10.4 mph - N/A   Overcast
1:53 PM 57.9 °F - 39.0 °F 49% 30.06 in 10.0 mi NNE 5.8 mph - N/A   Clear
2:53 PM 60.1 °F - 37.9 °F 44% 30.04 in 10.0 mi NNW 9.2 mph 16.1 mph N/A   Clear
3:53 PM 60.1 °F - 37.9 °F 44% 30.03 in 10.0 mi NNW 6.9 mph 16.1 mph N/A   Clear
4:53 PM 60.1 °F - 37.9 °F 44% 30.04 in 10.0 mi NNW 10.4 mph - N/A   Clear
5:53 PM 57.0 °F - 39.0 °F 51% 30.04 in 10.0 mi NNW 5.8 mph - N/A   Clear
6:53 PM 53.1 °F - 39.9 °F 61% 30.04 in 10.0 mi NW 3.5 mph - N/A   Clear
7:53 PM 50.0 °F - 39.0 °F 66% 30.05 in 10.0 mi Calm Calm - N/A   Clear
8:53 PM 46.0 °F 44.8 °F 39.9 °F 79% 30.06 in 10.0 mi North 3.5 mph - N/A   Clear
9:53 PM 45.0 °F - 39.0 °F 80% 30.09 in 10.0 mi Calm Calm - N/A   Clear
10:53 PM 43.0 °F - 37.9 °F 82% 30.10 in 10.0 mi Calm Calm - N/A   Clear
11:53 PM 39.9 °F - 37.9 °F 93% 30.11 in 10.0 mi Calm Calm - N/A   Clear